Terminal Aerodrome Forecast
Issued by NWS Charleston, WV

Current Version | Previous Version | Graphics & Text | Print | Product List | Glossary On
Versions: 1 2 3 4 5 6 7 8 9 10 11 12 13 14 15 16 17 18 19 20 21 22 23 24 25
000
FTUS41 KRLX 011300 AAA
TAFCRW
TAF AMD
KCRW 011301Z 0113/0212 18005KT 4SM -RA BR BKN040
     FM011400 17003KT 4SM -RA BR OVC025
     FM012300 00000KT 4SM -RA BR OVC018=

USA.gov is the U.S. government's official web portal to all federal, state and local government web resources and services.